Regional Weather Roundup
Issued by NWS Northern Indiana

Home | Current Version | Previous Version | Graphics & Text | Print | Product List | Glossary On
Versions: 1 2 3 4 5 6 7 8 9 10 11 12 13 14 15 16 17 18 19 20 21 22 23 24 25 26 27 28 29 30 31 32 33 34 35 36 37 38 39 40 41 42 43 44 45 46 47 48 49 50
000
ASUS43 KIWX 270600
RWRIWX

KIWX WEATHER ROUNDUP
NATIONAL WEATHER SERVICE NORTHERN INDIANA
100 AM EST SAT DEC 27 2014

NOTE: "FAIR" INDICATES FEW OR NO CLOUDS BELOW 12,000 FEET WITH NO
SIGNIFICANT WEATHER AND/OR OBSTRUCTIONS TO VISIBILITY.

* THESE STATIONS ARE NOT UNDER NWS QUALITY CONTROL. THEY ALSO MAY NOT
  REPORT WEATHER SUCH AS PRECIPITATION OR FOG.

INZ001>027-270700-
NORTHERN INDIANA

CITY           SKY/WX    TMP DP  RH WIND       PRES   REMARKS
KNOX*          CLOUDY    45  38  77 S7        30.07F
6HR MIN TEMP:   9; 6HR MAX TEMP:  81;

SOUTH BEND     CLOUDY    47  41  80 S7        30.08F
6HR MIN TEMP:  46; 6HR MAX TEMP:  49;

GOSHEN         CLOUDY    46  41  82 S7        30.08F
6HR MIN TEMP:  43; 6HR MAX TEMP:  47;

ANGOLA*        MOCLDY    43  39  87 SW7       30.09F
FORT WAYNE     CLOUDY    44  39  82 S7        30.12F
6HR MIN TEMP:  40; 6HR MAX TEMP:  44;


$$
INZ028>050-270700-
CENTRAL INDIANA

CITY           SKY/WX    TMP DP  RH WIND       PRES   REMARKS
LAFAYETTE      CLOUDY    47  41  80 S9        30.08F
6HR MIN TEMP:  44; 6HR MAX TEMP:  47;

KOKOMO*        CLOUDY    45  39  81 S10       30.10F
6HR MIN TEMP:  37; 6HR MAX TEMP:  45;

MUNCIE*        CLOUDY    48  37  65 SW10      30.13S
6HR MIN TEMP:  45; 6HR MAX TEMP:  48;

INDIANAPOLIS   CLOUDY    46  37  71 S12       30.10F
6HR MIN TEMP:  44; 6HR MAX TEMP:  46;


$$
MIZ043>046-050>051-056>058-064>065-071>073-077>080-270700-
SOUTHWEST LOWER MICHIGAN

CITY           SKY/WX    TMP DP  RH WIND       PRES   REMARKS
BATTLE CREEK   CLOUDY    45  40  82 S10       30.08S
6HR MIN TEMP:  41; 6HR MAX TEMP:  46;

BENTON HARBOR  CLOUDY    46  41  82 S10       30.05F
6HR MIN TEMP:  45; 6HR MAX TEMP:  47;

COLDWATER*     CLOUDY    43  39  86 CALM      30.09S
6HR MIN TEMP:  42; 6HR MAX TEMP:  45;

HILLSDALE*     CLOUDY    43  41  92 S6        30.09S
HOLLAND        CLOUDY    47  40  76 S8        30.05S
6HR MIN TEMP:  39; 6HR MAX TEMP:  47;

GRAND RAPIDS   CLOUDY    45  39  79 S15G23    30.04F
6HR MIN TEMP:  36; 6HR MAX TEMP:  45;

KALAMAZOO      CLOUDY    45  40  82 S7        30.08S
6HR MIN TEMP:  41; 6HR MAX TEMP:  47;

STURGIS*       CLOUDY    43  39  87 S3        30.08F
THREE RIVERS*  CLOUDY    43  39  87 S3        30.09S
6HR MIN TEMP:  43; 6HR MAX TEMP:  46;


$$
OHZ001>008-015>018-024>025-270700-
NORTHWEST OHIO

CITY           SKY/WX    TMP DP  RH WIND       PRES   REMARKS
DEFIANCE       CLOUDY    45  38  76 SW9       30.12F
6HR MIN TEMP:  40; 6HR MAX TEMP:  45;

FINDLAY        CLOUDY    44  36  73 S13       30.13F
6HR MIN TEMP:  37; 6HR MAX TEMP:  44;

TOLEDO EXPRESS CLOUDY    43  36  76 SW7       30.12F
6HR MIN TEMP:  38; 6HR MAX TEMP:  43;

TOLEDO METCALF CLOUDY    43  36  76 SW8       30.13F
6HR MIN TEMP:  37; 6HR MAX TEMP:  43;

LIMA           CLOUDY    46  36  68 S8        30.14F
6HR MIN TEMP:  42; 6HR MAX TEMP:  46;


$$
AND FOR LAKE MICHIGAN COASTAL AND OPEN LAKE BUOY OBSERVATIONS

STATION/POSITION TEMP    WIND        PRES    VSBY  WAVE
                 AIR SEA DIR/SP/G                  HT/PER
                 (F)     (DEG/KT/KT) (MB)    (MI)  (FT/S)
CALUMET HARBOR    47     170/  8/ 13 1015.7F
MICHIGAN CITY     47     160/ 12/ 16   N/A
SAINT JOSEPH      48     150/  2/ 13 1018.6R

$$
&&


USA.gov is the U.S. government's official web portal to all federal, state and local government web resources and services.